Weather Roundup
Issued by NWS Chicago, IL

Home | Current Version | Previous Version | Text Only | Print | Product List | Glossary On
Versions: 1 2 3 4 5 6 7 8 9 10 11 12 13 14 15 16 17 18 19 20 21 22 23 24 25 26 27 28 29 30 31 32 33 34 35 36 37 38 39 40 41 42 43 44 45 46 47 48 49 50
000
NZUS59 KLOT 280812
HRRLOT

CHICAGO AREA WEATHER ROUNDUP
NATIONAL WEATHER SERVICE CHICAGO/ROMEOVILLE IL
300 AM CDT WED SEP 28 2016

NOTE: "FAIR" INDICATES FEW OR NO CLOUDS BELOW 12,000 FEET WITH NO
SIGNIFICANT WEATHER AND/OR OBSTRUCTIONS TO VISIBILITY.

* THESE STATIONS ARE NOT UNDER NWS QUALITY CONTROL. THEY ALSO MAY NOT
  REPORT WEATHER SUCH AS PRECIPITATION OR FOG.

ILZ005-006-012>014-019>023-280900-
NORTHEAST ILLINOIS

CITY           SKY/WX    TMP DP  RH WIND       PRES   REMARKS
OHARE          CLOUDY    54  44  69 N6        29.78R
MIDWAY         CLOUDY    56  44  64 NE7       29.76F
AURORA         CLOUDY    53  46  77 CALM      29.77F
LANSING*       CLOUDY    57  52  85 N6        29.76R
JOLIET*        CLOUDY    56  48  74 NW7       29.80R
WAUKEGAN       LGT RAIN  51  48  89 CALM      29.78S
DUPAGE AIRPORT CLOUDY    52  45  77 E3        29.77F
WHEELING       CLOUDY    53  46  77 N3        29.79S
KANKAKEE*      LGT RAIN  55  48  77 NE7       29.75F
MORRIS*        CLOUDY    54  47  77 CALM      29.77R
LEWIS AIRPORT* CLOUDY    54  49  83 N9        29.80R
NORTHERLY ISL    N/A     55  46  71 NE8         N/A
$$

WIZ051-052-058>065-066-070>072-280900-
SOUTHEAST WISCONSIN

CITY           SKY/WX    TMP DP  RH WIND       PRES   REMARKS
MILWAUKEE      LGT RAIN  51  47  86 NW6       29.78F
KENOSHA*       CLOUDY    50  47  89 N5        29.78F
RACINE*        LGT RAIN  50  47  89 NW6       29.79F
BURLINGTON     DRIZZLE   47  46  93 CALM      29.79S
WAUKESHA       CLOUDY    46  45  93 W3        29.80R
WEST BEND      CLOUDY    48  46  93 W5        29.78S
$$

INZ001>003-010>013-019-020-280900-
NORTHWEST INDIANA

CITY           SKY/WX    TMP DP  RH WIND       PRES   REMARKS
GARY*          CLOUDY    58  50  74 NE7       29.77R
MICHIGAN CITY* NOT AVBL
RENSSELAER*    NOT AVBL
VALPARAISO     MOCLDY    50  46  86 NE6       29.76F
$$

LMZ740>746-280900-
SOUTHERN LAKE MICHIGAN

STATION/POSITION TIME  SKY/WX   TEMP WIND        PRES    VSBY
                                AIR  DIR/SP/G
                 (UTC)          (F)  (DEG/KT/KT) (MB)    (MI)
HARRISON CRIB    0740            57   40/ 13/ 14   N/A
BURNHAM HARBOR   0800            56   20/  6/ 12   N/A
CALUMET HARBOR   0748            57  350/ 10/ 15 1007.8R
BURNS HARBOR     0800            56   60/  8/ 14 1008.5
MICHIGAN CITY    0740            55   50/ 10/ 11   N/A
$$

ABBREVIATIONS USED IN REMARKS
   TC - TEMPERATURE IN CELSIUS
  WCI - WIND CHILL INDEX
   HX - HEAT INDEX
  VSB - VISIBILITY
$$



USA.gov is the U.S. government's official web portal to all federal, state and local government web resources and services.